Regional Weather Roundup
Issued by NWS

Home | Current Version | Previous Version | Text Only | Print | Product List | Glossary On
Versions: 1 2 3 4 5 6 7 8 9 10 11 12 13 14 15 16 17 18 19 20 21 22 23 24 25 26 27 28 29 30 31 32 33 34 35 36 37 38 39 40 41 42 43 44 45 46 47 48 49 50
000
ASUS43 KDTX 190810
RWRMI
MICHIGAN HOURLY REGIONAL WEATHER ROUNDUP
NATIONAL WEATHER SERVICE DETROIT/PONTIAC MI
ISSUED BY NATIONAL WEATHER SERVICE GRAND RAPIDS MI
400 AM EDT SAT AUG 19 2017

NOTE: "FAIR" INDICATES FEW OR NO CLOUDS BELOW 12,000 FEET WITH NO
SIGNIFICANT WEATHER AND/OR OBSTRUCTION TO VISIBILITY.

MIZ047>049-052>055-059>063-066>070-074>076-081>083-190900-
SOUTHEAST LOWER MICHIGAN

CITY           SKY/WX    TMP DP  RH WIND       PRES   REMARKS
ADRIAN         MOCLDY    63  62  97 CALM      29.89F
ALMA           PTCLDY    60  59  95 CALM      29.87F
ANN ARBOR      CLEAR     58  58 100 CALM      29.87F
BAD AXE        CLOUDY    62  60  92 SW5       29.84S
DETROIT CITY   PTCLDY    64  60  87 SW5       29.87S
DETROIT        MOCLDY    64  60  87 SW6       29.88F
FLINT          MOCLDY    61  59  93 SW5       29.88R
GROSSE ILE     PTCLDY    66  61  82 CALM      29.87S
HILLSDALE      MOCLDY    61  59  94 S5        29.88F
HOWELL         CLOUDY    62  60  92 SW3       29.88S

CITY           SKY/WX    TMP DP  RH WIND       PRES   REMARKS
JACKSON        MOCLDY    62  59  90 CALM      29.88F
LANSING        CLOUDY    63  59  87 W5        29.88S
MASON          CLOUDY    62  59  90 CALM      29.89S
MONROE         PTCLDY    63  61  94 CALM      29.87F
MT. CLEMENS    CLEAR     63  60  90 W3        29.85S
PONTIAC        PTCLDY    62  61  96 S3        29.87R
PORT HOPE        N/A     64  58  80 W3        29.81S
PORT HURON     CLEAR     63  59  88 CALM      29.86F
TRI CITIES     CLOUDY    63  62  97 W8        29.85F
YPSILANTI      PTCLDY    63  61  93 SW5       29.88S
$$
MIZ043>046-050>051-056>058-064>065-071>073-077>080-190900-
SOUTHWEST LOWER MICHIGAN

CITY           SKY/WX    TMP DP  RH WIND       PRES   REMARKS
BATTLE CREEK   MOCLDY    63  61  93 NE3       29.89S
BENTON HARBOR  MOCLDY    69  63  81 NW6       29.88R
BIG RAPIDS     CLOUDY    59  56  91 CALM      29.87S
COLDWATER      CLOUDY    65  65 100 CALM      29.88S
HOLLAND        CLOUDY    65  61  87 CALM      29.88S
GRAND RAPIDS   MOCLDY    63  61  93 S5        29.87F
KALAMAZOO      MOCLDY    63  60  90 CALM      29.88S
MARSHALL       MOCLDY    60  59  98 CALM      29.88F
MOUNT PLEASANT CLOUDY    64  61  91 W3        29.86S
MUSKEGON       MOCLDY    66  60  81 NE3       29.87S
STURGIS        CLOUDY    64  63  94 CALM      29.88R
$$
MIZ016>042-190900-
NORTHERN LOWER MICHIGAN

CITY           SKY/WX    TMP DP  RH WIND       PRES   REMARKS
ALPENA         CLOUDY    62  59  90 SW6       29.80S
BEAVER ISLAND  CLOUDY    63  58  84 NW8       29.83S
BELLAIRE       CLOUDY    61  59  92 CALM      29.83S
CADILLAC       CLOUDY    57  54  89 SW3       29.86S
CHARLEVOIX     CLOUDY    64  59  83 NW12      29.85F
GAYLORD        CLOUDY    59  56  89 W6        29.83S
HOUGHTON LAKE  CLOUDY    60  57  89 NW9       29.85F
MANISTEE       PTCLDY    55  55 100 CALM      29.85S
OSCODA         CLOUDY    60  58  94 W8        29.82R
PELLSTON       CLOUDY    62  58  86 NW12      29.81S
TRAVERSE CITY  CLOUDY    62  59  90 CALM      29.82F
LUDINGTON      CLOUDY    58  58  97 CALM      29.86S FOG
$$
MIZ007>008-015-190900-
EASTERN UPPER MICHIGAN

CITY           SKY/WX    TMP DP  RH WIND       PRES   REMARKS
KINROSS        CLOUDY    59  58  96 W8        29.80R
MACKINAC ISLAN CLOUDY    60  60 100 NW9G16    29.80S
NEWBERRY       PTCLDY    56  56  97 W6        29.82S
S. S. MARIE    CLOUDY    61  59  93 W7        29.78R
$$
MIZ004>006-011>014-085-190900-
CENTRAL UPPER MICHIGAN

CITY           SKY/WX    TMP DP  RH WIND       PRES   REMARKS
MANISTIQUE     CLOUDY    56  50  80 CALM      29.83S
ESCANABA       CLOUDY    57  56  96 W5        29.84F
MENOMINEE      PTCLDY    58  57  97 CALM      29.86F
SAWYER-GWINN   PTCLDY    56  54  92 CALM      29.85S
$$
MIZ001>003-009>011-084-190900-
WESTERN UPPER MICHIGAN

CITY           SKY/WX    TMP DP  RH WIND       PRES   REMARKS
IRON MOUNTAIN  CLOUDY    54  52  93 CALM      29.85S
HOUGHTON         N/A    N/A N/A N/A MISG      29.80F
COPPER HARBOR    N/A     61  56  83 CALM      29.78S
IRONWOOD       PTCLDY    59  57  93 W5        29.86S
$$

ABBREVIATIONS USED IN REMARKS
   TC - TEMPERATURE IN CELSIUS
  WCI - WIND CHILL INDEX
   HX - HEAT INDEX
  VSB - VISIBILITY




USA.gov is the U.S. government's official web portal to all federal, state and local government web resources and services.